Location: Bosdarros
(43.2167°N, 0.3667°W)
Time: 11:16:40
(UTC+00:00)

FENGYUN 1C DEB - Pass Details

Date: 24 October 2021
Orbit: 805 x 871 km, 98.8° (Epoch: 26 November)

Event Time Altitude Azimuth Distance (km) Brightness Sun altitude
Exits shadow 20:45:36 17° 263° (W) 1,937 ? -40.3°
Maximum altitude 20:46:03 17° 269° (W) 1,929 ? -40.4°
Drops below altitude 10° 20:49:28 10° 310° (NW) 2,398 ? -40.9°
Sets 20:52:40 0° 330° (NNW) 3,342 ? -41.5°
